Orbital Elements at Epoch 2459200.5 (2020-Dec-17.0) TDB
Reference: JPL 13 (heliocentric ecliptic J2000)
Element | Value | Uncertainty (1-sigma) | Units |
e | .008542208606436312 | 5.9055e-08 | |
a | 2.812249637954472 | 2.5762e-08 | au |
q | 2.78822681489369 | 1.5743e-07 | au |
i | 5.435898239503641 | 7.2168e-06 | deg |
node | 357.3658881973166 | 5.2673e-05 | deg |
peri | 229.4304730816296 | 0.00048053 | deg |
M | 99.2453921904787 | 0.00047337 | deg |
tp | 2458725.616497188270 (2019-Aug-30.11649719) | 0.0022682 | TDB |
period | 1722.579328258465 4.72 | 2.3669e-05 6.48e-08 | d yr |
n | .2089889238157533 | 2.8717e-09 | deg/d |
Q | 2.836272461015255 | 2.5982e-08 | au |
|
| | Orbit Determination Parameters
Additional Information
|